Regional Weather Roundup
Issued by NWS Pendleton, OR

Home | Current Version | Previous Version | Text Only | Print | Product List | Glossary On
Versions: 1 2 3 4 5 6 7 8 9 10 11 12 13 14 15 16 17 18 19 20 21 22 23 24 25 26 27 28 29 30 31 32 33 34 35 36 37 38 39 40 41 42 43 44 45 46 47 48 49 50
000
ASUS46 KPDT 250310
RWRPDT
PENDLETON REGIONAL WEATHER ROUNDUP
NATIONAL WEATHER SERVICE PENDLETON OREGON
700 PM PST WED DEC 24 2014

NOTE: FAIR INDICATES FEW OR NO CLOUDS BELOW 12,000 FEET WITH NO
SIGNIFICANT WEATHER AND/OR OBSTRUCTIONS TO VISIBILITY.

# INDICATES UNOFFICIAL STATION AND DATA

WAZ520-250410-
EAST SLOPES OF WASHINGTON CASCADES

CITY            SKY/WX      TMP DP  RH  WIND    PRES   REMARKS
#BULLFROG 2SW   N/A         36  32  85  SW5     27.45R
#BUMPING DAM    N/A         29  N/A N/A W9      N/A
#CLE ELUM HS    N/A         35  28  75  W7      29.81S
#CLE ELUM 2NW   N/A         34  29  82  SW5     N/A
#CLE ELUM LAKE  N/A         32  28  85  CALM    29.89R
#CLIFFDEL 2NW   N/A         32  27  82  N2      N/A
#EASTON DOT     N/A         33  30  89  N5      N/A
#GLENWOOD       N/A         37  31  79  SW5     29.86R
#MANASTASH CYN  N/A         33  23  66  CALM    29.78R
#NELSON         N/A         35  31  85  CALM    29.91S
#NELSON 3SW     N/A         34  27  75  CALM    30.11R
#NILE           N/A         35  28  75  E2      29.10F
#PEOH POINT     N/A         27  25  92  W7      N/A
#RONALD 2NW     N/A         33  30  89  NE1     29.71R
#SNOWDEN        N/A         35  27  72  CALM    N/A
#SOUTH BLEWITT  N/A         30  29  96  CALM    N/A
#TEANAWAY 4NE   N/A         32  28  85  CALM    N/A
#TROUT LAKE HS  N/A         36  34  92  SW3     N/A
#TROUT LAKE 1NE N/A         35  32  89  W2      29.91R
$$

WAZ521-250410-
SIMCOE HIGHLANDS

CITY            SKY/WX      TMP DP  RH  WIND    PRES   REMARKS
#BICKLETON HS   N/A         32  17  53  N13     34.25S WCI 22
#SATUS PASS DOT N/A         33  17  51  CALM    N/A
#CENTERVILLE 1SWN/A         35  30  82  W8      29.88R
#GOLDENDALE     N/A         36  30  79  N1      N/A
#GOLDENDALE 1NE N/A         36  25  64  CALM    N/A
#GOLDENDALE 5WNWN/A         35  29  78  W5      29.87R
#GOODNOE HILLS  N/A         37  29  72  W14     N/A    WCI 28
#LYLE 6NE       N/A         39  35  85  S17G26  29.86R WCI 30
$$

WAZ026-250410-
KITTITAS VALLEY

CITY            SKY/WX      TMP DP  RH  WIND    PRES   REMARKS
ELLENSBURG AP   CLEAR       38  27  64  N13     29.82R WCI 30
#ELLENSBURG CWU N/A         38  29  70  NW15    29.81R WCI 29
#ELLENSBURG 3NE N/A         36  29  75  N9      29.83R
#ELLENSBURG     N/A         40  32  73  NW6     N/A
#ELLENSBURG 1E  N/A         38  26  62  NW1     N/A
#KITTITAS 4N    N/A         36  27  69  W8      29.85R
#KITTITAS 3S    N/A         36  29  75  W7      29.83R
#THORP 6N       N/A         35  29  78  NW26G45 29.85F WCI 22
$$

WAZ027-250410-
YAKIMA VALLEY

CITY            SKY/WX      TMP DP  RH  WIND    PRES   REMARKS
YAKIMA AIRPORT  CLEAR       40  23  50  N8      29.85R
YAKIMA-VAGABOND CLEAR       39  24  54  N7      29.85S
#DONALD 2NE     N/A         39  20  46  CALM    28.70R
#GRANDVIEW      N/A         42  24  48  NW3     29.86S
#MABTON         N/A         39  29  67  SW1     29.85R
#MOXEE 2E       N/A         39  39  100 CALM    29.75F
#NACHES 2SW     N/A         39  27  62  SW5     29.76S
#TERRACE HTS    N/A         39  26  59  N6      29.83R
#WAPATO 4NE     N/A         39  20  46  CALM    28.70R
#WEST VALLEY    N/A         38  24  57  CALM    29.85R
#W YAKIMA       N/A         37  25  61  CALM    29.87R
#WHITE SWAN 5E  N/A         36  27  69  NE2     29.87R
#WILEY CITY 3W  N/A         41  21  44  NW7     29.84R
$$

WAZ028-250410-
LOWER COLUMBIA BASIN...WASHINGTON

CITY            SKY/WX      TMP DP  RH  WIND    PRES   REMARKS
PASCO           CLEAR       41  30  65  W13     29.84R WCI 34
PROSSER AWOS    N/A         37  27  67  SW10    29.88R
RICHLAND AWOS   CLEAR       43  28  55  W12     29.83R WCI 37
#BASIN CITY 5SW N/A         40  33  76  W12     29.81R WCI 33
#BENTON CITY    N/A         44  27  51  SW16G24 29.74R WCI 37
#CONNELL 5N     N/A         34  32  92  W1      29.80R
#CONNELL 5NW    N/A         35  32  89  W2      29.77R
#ELTOPIA        N/A         39  34  82  NW2     29.78
#ELTOPIA 6NW    N/A         39  32  76  W9      28.77R
#KAHLOTUS       N/A         38  36  92  N6      29.80R
#KENNEWICK      N/A         36  32  85  SW5     27.45R
#KENNEWICK 3S   N/A         38  30  73  W3      29.84R
#PASCO-BROADMOORN/A         42  27  55  W2      29.75R
#PATERSON       N/A         39  32  76  NW3     29.84R
#PROSSER DOT    N/A         42  27  55  W12     N/A    WCI 35
#PROSSER        N/A         41  25  53  W7      29.85R
#SAGEMOOR 2W    N/A         39  31  73  SW14    29.66R WCI 31
#TOUCHET 2S     N/A         41  36  82  W10     29.80R
#WEST PASCO     N/A         42  32  67  W2      29.82R
$$

WAZ029-250410-
FOOTHILLS OF THE BLUES...WASHINGTON

CITY            SKY/WX      TMP DP  RH  WIND    PRES   REMARKS
WALLA WALLA AP  LGT RAIN    39  36  89  S10     29.80R
#DAYTON SCHOOL  N/A         35  29  78  SW5     29.80S
#DELANEY DOT    N/A         38  34  85  S2      N/A
#LOWDEN 2SE     N/A         40  37  89  CALM    29.79R
#PLEASANT VIEW 1N/A         35  34  96  S7      29.84S
#PRESCOTT       N/A         38  37  96  CALM    29.80S
#SUDBURY        N/A         40  N/A N/A CALM    N/A
#WHITMAN COLLEGEN/A         38  36  92  SE1     29.87R
#WAITSBURG 5S   N/A         34  33  96  S10     29.90R
#WALLA WALLA 5E N/A         37  35  92  S13     N/A    WCI 29
#WALLA WALLA U  N/A         38  36  92  CALM    29.83R
#WHITMAN MISSIONN/A         39  37  92  CALM    29.84R
$$

WAZ030-250410-
BLUE MOUNTAINS...WASHINGTON

CITY            SKY/WX      TMP DP  RH  WIND    PRES   REMARKS
#DIXIE 5SE      N/A         32  32  100 CALM    29.67R
#SKI BLUEWOOD   N/A         26  25  96  E7      29.74S
$$

ORZ009-041-WAZ024-250410-
COLUMBIA RIVER GORGE

CITY            SKY/WX      TMP DP  RH  WIND    PRES   REMARKS
HOOD RIVER AP   PTCLDY      43  36  76  W10G26  29.92S
THE DALLES AP   MOCLDY      45  35  68  W8      29.91R
#ARLINGTON AIRPON/A         39  34  82  W9      30.01S
#ARLINGTON HS   N/A         42  33  70  NW1     29.80R
#CELILO DOT     N/A         45  32  60  SW3     N/A
#LYLE           N/A         46  40  79  W7      29.93R
#MARYHILL       N/A         40  34  79  NW10    N/A
#MARYHILL 2W    N/A         42  37  82  SE5     N/A
#MOSIER 1S      N/A         42  28  57  CALM    29.91S
#MURDOCK        N/A         47  40  76  NW22G39 29.91S WCI 39
#RUFUS DOT      N/A         43  30  60  W17     N/A    WCI 35

$$

ORZ510-250410-
NORTH CENTRAL OREGON

CITY            SKY/WX      TMP DP  RH  WIND    PRES   REMARKS
#CHENOWITH 1W   N/A         37  35  92  NW30    N/A    WCI 24
#COW CYN RST AREN/A         31  26  81  S2      N/A
#DUFUR 9E       N/A         36  31  82  W17G24  29.94S WCI 26
#GRASS VALLEY   N/A         33  31  92  SW1     N/A
#GRASS VALLEY 1SN/A         34  30  85  W13     29.93R WCI 25
#KENT DOT       N/A         32  23  69  W10     N/A
#MAUPIN SCHOOL  N/A         38  30  73  CALM    29.90S
#MORO SCHOOL    N/A         36  34  92  W12     29.88R WCI 28
#SHANIKO 4NW    N/A         27  27  100 W8      29.82S
#TYGH VALLEY 2NEN/A         39  30  70  NE5     29.89R
#WAPANITIA AIRPON/A         38  31  76  W7      29.89R
#WASCO DOT      N/A         41  32  70  W21G30  N/A    WCI 32
#WASCO 5NE      N/A         37  33  85  N9      29.88S
$$

ORZ511-250410-
CENTRAL OREGON

CITY            SKY/WX      TMP DP  RH  WIND    PRES   REMARKS
BEND AIRPORT    PTCLDY      32  25  75  N7      29.88S
MADRAS AIRPORT  PTCLDY      30  27  88  E5      29.90S
PRINEVILLE AP   PTCLDY      23  21  92  W7      29.88S
REDMOND AIRPORT PTCLDY      29  25  85  W6      29.87S
#BEND 1SW       N/A         25  23  92  E1      N/A
#BEND-AWBREY    N/A         29  26  88  CALM    29.93R
#BEND-KIM LN    N/A         27  25  92  CALM    29.83S
#CROOKED RVR RANN/A         32  26  78  N23G45  29.93R WCI 19
#CULVER         N/A         31  26  81  CALM    29.85R
#LAKE BILLY CHINN/A         36  13  38  SE3     30.01S
#POWELL BUTTE 3EN/A         30  26  85  NW1     N/A
#POWELL BUTTE   N/A         30  25  81  N3      29.51S
#PRINEVILLE 3N  N/A         30  26  85  S1      29.91R
#WARM SPRINGS   N/A         34  29  82  CALM    29.88R


ORZ509-250410-
EAST SLOPES OF OREGON CASCADES

CITY            SKY/WX      TMP DP  RH  WIND    PRES   REMARKS
#BLACK BUTTE RNCN/A         34  29  82  CALM    29.90S
#CAMP SHERMAN   N/A         35  28  75  SE1     29.93R
#LA PINE DOT    N/A         29  21  72  W8      N/A
#LA PINE 4NW    N/A         29  24  81  CALM    29.96S
#LAVA BUTTE DOT N/A         24  22  92  SE2     N/A
#MT BACHELOR-MIDN/A         17  15  92  E18G29  N/A    WCI  1
#SISTERS AIRPOR N/A         35  29  78  N21G31  30.17S WCI 24
#SISTERS ODOT   N/A         36  N/A N/A CALM    N/A
#SISTERS 3N     N/A         34  22  61  CALM    29.87S
#SUNRIVER       N/A         27  25  92  SE1     29.81R
#TUMALO 3W      N/A         31  26  81  N3      29.79R
#WANOGA BUTTE D N/A         24  16  71  NW8G26  N/A

$$

ORZ044-250410-
LOWER COLUMBIA BASIN...OREGON

CITY            SKY/WX      TMP DP  RH  WIND    PRES   REMARKS
HERMISTON       CLEAR       38  33  82  SW10    29.85R
#BOARDMAN 3W    N/A         37  34  89  W10     29.59R
#BOARDMAN 8SW   N/A         39  34  82  W7      29.87R
#ECHO 8SW       N/A         39  32  76  W7      29.83R
#IONE SCHOOL    N/A         38  26  62  W8      29.86R
#IRRIGON 4NW    N/A         38  36  92  SW6     N/A
#UMATILLA SCHOOLN/A         35  35  100 CALM    29.92R
#UMATILLA       N/A         40  33  76  SW6     29.83R
$$

ORZ507-250410-
NORTHERN FOOTHILLS OF THE BLUES

CITY            SKY/WX      TMP DP  RH  WIND    PRES   REMARKS
PENDLETON AIRPT PTCLDY      35  32  89  W21     29.81R WCI 24
#ADAMS 3WNW     N/A         34  33  96  W8      29.83S
#ATHENA         N/A         35  34  96  SW2     29.85R
#CAYUSE         N/A         36  34  92  W9      29.83R
#HELIX SCHOOL   N/A         35  34  96  W8      29.83R
#HELIX 3N       N/A         34  33  96  W14     29.77R WCI 25
#HOLDMAN 5SE    N/A         35  33  92  SW8     29.83R
#HOLDMAN 6E     N/A         34  33  96  E6      29.64R
#M-F GROVE ELEM N/A         38  34  85  SW6     29.80R
#M-FREEWATER 5SEN/A         37  34  89  S14     29.81R WCI 28
#PENDLETON DNTN N/A         37  34  89  W3      28.64R
#PDT AQUATIC CTRN/A         39  33  79  W9      29.79S
#PENDLETON 5NE  N/A         35  34  96  CALM    29.78R
#PDT SUNRIDGE   N/A         38  34  85  W7      29.83S
#PENDLETON 7NW  N/A         36  32  85  SW10    28.71R
#PILOT ROCK     N/A         35  28  75  SW1     29.84R
#TUTUILLA       N/A         36  32  85  W10     29.84R
#UMAPINE 2E     N/A         40  37  89  CALM    29.78R
#WESTON SCHOOL  N/A         34  32  92  NW7     29.80R

$$

ORZ508-250410-
SOUTHERN FOOTHILLS OF THE BLUES

CITY            SKY/WX      TMP DP  RH  WIND    PRES   REMARKS
LEXINGTON       CLEAR       36  32  85  W12     29.87R WCI 28
#AJAX           N/A         37  25  61  W10     29.81R
#CONDON SCHOOL  N/A         32  29  89  CALM    29.81S
#CONDON 5W      N/A         29  26  88  CALM    29.80R
#FOSSIL SCHOOL  N/A         31  26  81  CALM    29.84R
#HEPPNER EOC    N/A         33  29  85  CALM    29.83R
#HEPPNER 4NE    N/A         30  27  88  W6      29.85R
#LEXINGTON 2SE  N/A         36  30  79  NW6     29.81R
#MIKKALO        N/A         37  29  72  W12     29.87R WCI 29
#RUGGS 2SW      N/A         31  27  85  W15     29.89R WCI 20

$$

ORZ502-503-250410-
BLUE MOUNTAINS

CITY            SKY/WX      TMP DP  RH  WIND    PRES   REMARKS
MEACHAM         CLOUDY      30  29  96  VRB5    29.75R FOG
#BATTLE MTN DOT N/A         27  26  96  NW3     N/A
#HEPPNER 15SE   N/A         26  24  92  CALM    29.67R
#LADD CYN SMT   N/A         32  24  72  NW21    N/A    WCI 20
#LADD CREEK ODOTN/A         34  27  75  NE5     N/A
#LONG CREEK HS  N/A         28  28  100 CALM    29.74R
#N POWDER DOT   N/A         34  26  72  N22     N/A    WCI 22
#PIKES PEAK     N/A         30  29  96  NW5     27.99S
#TOLLGATE       N/A         25  24  96  S3      29.65R
#TROY SCHOOL    N/A         36  34  92  CALM    29.62R
#UKIAH          N/A         31  28  88  W6      29.87R
#WESTON 4E      N/A         30  29  96  CALM    29.77R
$$

ORZ505-250410-
JOHN DAY BASIN

CITY            SKY/WX      TMP DP  RH  WIND    PRES   REMARKS
JOHN DAY        CLOUDY      32  30  92  NW12    29.79R WCI 23
#DAYVILLE SCHOOLN/A         32  29  89  CALM    30.16S
#MONUMENT HS    N/A         35  28  75  NE1     29.86R
#MT. VERNON 5SE N/A         28  26  92  NW5     29.72R
#WINLOCK        N/A         31  26  81  CALM    29.92R
$$

ORZ506-250410-
OCHOCO AND JOHN DAY HIGHLANDS

CITY            SKY/WX      TMP DP  RH  WIND    PRES   REMARKS
#HORSE RIDGE DO N/A         26  21  81  W7      N/A
#KEYES SMT DOT  N/A         26  24  92  CALM    N/A
#PAULINA SCHOOL N/A         N/A N/A N/A NW6     29.84R
#PRAIRIE CITY   N/A         28  25  88  W5      29.93R
#SENECA         N/A         27  N/A N/A N7      N/A
#SENECA 9NW     N/A         27  25  92  N1      29.80R
$$

ORZ049-250410-
GRANDE RONDE VALLEY

CITY            SKY/WX      TMP DP  RH  WIND    PRES   REMARKS
LA GRANDE       CLOUDY      36  25  64  N14     29.74R WCI 27
#COVE           N/A         32  27  82  CALM    30.03S
#COVE SCHOOL    N/A         33  30  89  CALM    29.74R
#COVE 6NW       N/A         31  29  92  CALM    29.85R
#ELGIN 3N       N/A         32  26  78  CALM    29.50R
#ELGIN 1E       N/A         34  30  85  CALM    N/A
#ISLAND CITY 4N N/A         41  40  96  CALM    30.02R
#LADD CYN DOT   N/A         35  27  72  NW15    N/A    WCI 25
#UNION 1S       N/A         32  30  92  N3      29.72R
$$

ORZ050-250410-
WALLOWA COUNTY

CITY            SKY/WX      TMP DP  RH  WIND    PRES   REMARKS
#ENTERPRISE AP  N/A         29  26  88  NW10    29.65R
#ENTERPRISE HS  N/A         30  28  92  W3      29.74R
#IMNAHA SCHOOL  N/A         36  34  92  S1      29.74R
#JOSEPH 3N      N/A         29  27  92  NW10    29.73R
#JOSEPH 3W      N/A         28  21  75  CALM    29.54R
#LOSTINE        N/A         30  27  88  CALM    29.60R
#MT HOWARD 8000 N/A         15  13  92  NW9     29.47S
#PROMISE 1S     N/A         30  27  88  CALM    29.88R
#SHEEP RDG 7000 N/A         18  16  92  CALM    29.63R
#WALLOWA SCHOOL N/A         32  29  89  CALM    30.77R



$$



USA.gov is the U.S. government's official web portal to all federal, state and local government web resources and services.